Find Starlink 30311

NORAD ID: 57637 Int'l Des: 2023-122 Owner: SPXS Country: US Constellation: starlink operational
LEOCIRCULAR

Current View

Loading 3D Globe...

About Starlink 30311

Starlink 30311 (NORAD 57637) is a starlink constellation satellite (v2 mini) launched Aug 17, 2023 by SPXS of US. It operates in LEO, CIRCULAR orbit with a mass of 730.00 kg.

Upcoming Passes

Passes for default location (London). Set your location on the main map for personalized predictions.

Altitude History

Loading altitude history...

Two-Line Element Set

1 57637U 23122F 26265.71759291 .00011122 00000-0 41335-3 0 9996
2 57637 43.0009 59.4749 0000615 267.6517 92.4264 15.27558773172344
Epoch: Sep 22, 2026 • Age: 17 hours

Current Status

Altitude 484.8 km
Apogee / Perigee N/A
Velocity 7.62 km/s
Sub-Earth Point -10.93°S, 114.96°W
Launch Date Aug 17, 2023
Age 3.1 years
Type internet

Technical Details

Classification Payload
Mass 730.00 kg
Dry Mass 700.00 kg
Length 0.30 m
Span 29.00 m
Shape ? Box + pan
Manufacturer SPXS
Bus Type Starlink V2M
Phase Status In Orbit
Owner/State SPXS/US

Most Searched